KJ6MC Weather Reports


Display with metric or nautical units.
time (UTC)temp
F
wind
direction
speed
MPH
gust
MPH
rain 1hr
in
rain 24hr
in
rain mn
in
humidity
%
barometer
mb
20180420162025 60 148 0.0 3.0 0.00 0.00 0.00 59 1021.4
20180420155024 58 276 0.0 2.0 0.00 0.00 0.00 66 1021.3
20180420154024 58 136 1.0 2.0 0.00 0.00 0.00 68 1021.2
20180420153024 56 247 0.0 2.0 0.00 0.00 0.00 70 1021.2
20180420145024 52 193 0.0 2.0 0.00 0.00 0.00 81 1020.8
20180420144024 51 146 0.0 1.0 0.00 0.00 0.00 82 1020.6
20180420143023 50 223 0.0 1.0 0.00 0.00 0.00 84 1020.4
20180420141023 48 246 0.0 1.0 0.00 0.00 0.00 86 1020.3
20180420140023 46 246 0.0 0.0 0.00 0.00 0.00 90 1020.2
20180420135023 45 246 0.0 0.0 0.00 0.00 0.00 91 1020.1
20180420134022 44 246 0.0 0.0 0.00 0.00 0.00 92 1019.9
20180420132022 44 246 0.0 0.0 0.00 0.00 0.00 91 1019.8
20180420131022 44 246 0.0 0.0 0.00 0.00 0.00 91 1019.8
20180420130022 44 246 0.0 0.0 0.00 0.00 0.00 90 1019.7
20180420125022 45 246 0.0 0.0 0.00 0.00 0.00 91 1019.6
20180420124022 45 246 0.0 0.0 0.00 0.00 0.00 91 1019.5
20180420114021 45 246 0.0 1.0 0.00 0.00 0.00 93 1019.2
20180420113021 45 246 0.0 0.0 0.00 0.00 0.00 93 1019.1
20180420112021 45 246 0.0 0.0 0.00 0.00 0.00 93 1019.2
20180420111020 45 246 0.0 0.0 0.00 0.00 0.00 92 1019.2
20180420110020 45 246 0.0 0.0 0.00 0.00 0.00 92 1019.1
20180420104020 46 246 0.0 0.0 0.00 0.00 0.00 90 1019.0
20180420103020 47 246 0.0 1.0 0.00 0.00 0.00 91 1019.1
20180420092019 48 166 0.0 1.0 0.00 0.00 0.00 88 1018.6
20180420090018 48 316 0.0 1.0 0.00 0.00 0.00 87 1018.5
20180420085018 49 316 0.0 1.0 0.00 0.00 0.00 87 1018.5
20180420083018 49 324 0.0 0.0 0.00 0.00 0.00 86 1018.6
20180420072017 51 324 0.0 2.0 0.00 0.00 0.00 79 1018.4
20180420071017 52 324 0.0 2.0 0.00 0.00 0.00 78 1018.2
20180420070017 52 262 0.0 0.0 0.00 0.00 0.00 80 1018.2
20180420065017 51 262 0.0 0.0 0.00 0.00 0.00 79 1018.3
20180420063017 52 262 0.0 0.0 0.00 0.00 0.00 78 1018.0
20180420062016 52 262 0.0 0.0 0.00 0.00 0.00 77 1018.0
20180420060016 53 262 0.0 0.0 0.00 0.00 0.00 75 1018.0
20180420054016 55 262 0.0 0.0 0.00 0.00 0.00 72 1017.9
20180420042015 59 314 2.0 4.0 0.00 0.00 0.00 64 1017.4
20180420041014 59 278 0.0 4.0 0.00 0.00 0.00 63 1017.3
20180420035014 61 279 4.0 7.0 0.00 0.00 0.00 60 1017.1
20180420034014 62 259 1.0 7.0 0.00 0.00 0.00 57 1017.0
20180420030014 67 337 0.0 6.0 0.00 0.00 0.00 34 1016.6
20180420024013 68 349 4.0 5.0 0.00 0.00 0.00 31 1016.4
20180420022013 69 320 3.0 10.0 0.00 0.00 0.00 30 1016.3
20180420020033 69 359 3.0 9.0 0.00 0.00 0.00 31 1016.2
20180420015013 70 311 2.0 9.0 0.00 0.00 0.00 31 1016.2
20180420014012 70 353 2.0 9.0 0.00 0.00 0.00 31 1016.2
20180420013012 70 332 3.0 10.0 0.00 0.00 0.00 30 1016.2
20180420012032 70 20 4.0 10.0 0.00 0.00 0.00 30 1016.2
20180420005012 71 336 0.0 8.0 0.00 0.00 0.00 29 1016.1
20180419232010 71 95 0.0 10.0 0.00 0.00 0.00 28 1016.2
20180419230010 71 94 0.0 9.0 0.00 0.00 0.00 28 1016.3
20180419225010 71 8 2.0 9.0 0.00 0.00 0.00 29 1016.4
20180419224010 71 6 0.0 8.0 0.00 0.00 0.00 28 1016.5
20180419223010 71 84 2.0 8.0 0.00 0.00 0.00 29 1016.4
20180419222010 71 359 6.0 7.0 0.00 0.00 0.00 28 1016.5
20180419220009 70 340 0.0 10.0 0.00 0.00 0.00 31 1016.5
20180419214009 69 286 1.0 10.0 0.00 0.00 0.00 30 1016.5
20180419212009 69 18 3.0 10.0 0.00 0.00 0.00 31 1016.7
20180419211009 68 344 4.0 9.0 0.00 0.00 0.00 34 1016.7
20180419205009 68 349 3.0 15.0 0.00 0.00 0.00 32 1016.9
20180419204008 68 11 4.0 15.0 0.00 0.00 0.00 32 1016.9
20180419203008 67 3 4.0 14.0 0.00 0.00 0.00 37 1016.8
20180419201007 67 10 6.0 11.0 0.00 0.00 0.00 37 1017.0
20180419195007 67 345 1.0 7.0 0.00 0.00 0.00 39 1017.1
20180419192007 65 9 2.0 9.0 0.00 0.00 0.00 42 1017.3
20180419191007 64 345 0.0 9.0 0.00 0.00 0.00 44 1017.4
20180419190006 63 347 4.0 10.0 0.00 0.00 0.00 44 1017.4
20180419185007 63 323 1.0 10.0 0.00 0.00 0.00 44 1017.5
20180419182006 61 322 4.0 10.0 0.00 0.00 0.00 45 1017.4
20180419181006 60 303 1.0 10.0 0.00 0.00 0.00 48 1017.3
20180419180006 60 358 3.0 8.0 0.00 0.00 0.00 48 1017.4
20180419175006 60 16 1.0 8.0 0.00 0.00 0.00 49 1017.5
20180419174005 60 7 0.0 8.0 0.00 0.00 0.00 50 1017.4
20180419172005 58 3 1.0 7.0 0.00 0.00 0.00 53 1017.4
20180419170005 56 176 0.0 3.0 0.00 0.00 0.00 63 1017.4
20180419165005 56 354 0.0 3.0 0.00 0.00 0.00 62 1017.4
20180419164005 55 353 0.0 2.0 0.00 0.00 0.00 64 1017.5